Location: Pedholt
(56.0260°N, 10.2097°E)
Time: 06:54:49
(UTC+00:00)

Helios 1B rocket - Pass Details

Date: 14 July 2020
Orbit: 574 x 584 km, 98.1° (Epoch: 07 August)

Event Time Altitude Azimuth Distance (km) Brightness Sun altitude
Rises 00:23:33 0° 14° (NNE) 2,816 8.2 -11.4°
Reaches altitude 10° 00:25:43 10° 13° (NNE) 1,910 6.7 -11.3°
Maximum altitude 00:29:50 74° 289° (WNW) 610 2.5 -11.1°
Enters shadow 00:33:06 16° 206° (SSW) 1,557 4.0 -11.0°
